This is the latest recevied weather packets stored in our database for station/object HP3ICC-23. If no packets are shown the sender has not sent any weather packets the latest 10 day(s).
| Time | Temp. | Humidity | Pressure | Rain* | Wind** | Luminosity | Snow |
|---|---|---|---|---|---|---|---|
| 1777912937 | 21.11° C | 63% | 1013 hPa | 0 mm | - | - | - |
| 1777911797 | 21.11° C | 64% | 1013 hPa | 0 mm | - | - | - |
| 1777911736 | 21.11° C | 64% | 1013 hPa | 0 mm | - | - | - |
| 1777910596 | 21.11° C | 63% | 1013 hPa | 0 mm | - | - | - |
| 1777910535 | 21.11° C | 63% | 1013 hPa | 0 mm | - | - | - |
| 1777909395 | 21.11° C | 64% | 1013 hPa | 0 mm | - | - | - |
| 1777909334 | 21.11° C | 64% | 1013 hPa | 0 mm | - | - | - |
| 1777908194 | 20° C | 68% | 1013 hPa | 0 mm | - | - | - |
| 1777908134 | 20° C | 68% | 1013 hPa | 0 mm | - | - | - |
| 1777906994 | 20.56° C | 64% | 1013 hPa | 0 mm | - | - | - |
| 1777906934 | 20.56° C | 64% | 1013 hPa | 0 mm | - | - | - |
| 1777905793 | 18.33° C | 65% | 1013 hPa | 0 mm | - | - | - |
| 1777905732 | 18.33° C | 65% | 1013 hPa | 0 mm | - | - | - |
| 1777904592 | 18.33° C | 72% | 1013 hPa | 0 mm | - | - | - |
| 1777904532 | 18.33° C | 72% | 1013 hPa | 0 mm | - | - | - |
| 1777903392 | 18.33° C | 70% | 1013 hPa | 0 mm | - | - | - |
| 1777903331 | 18.33° C | 70% | 1013 hPa | 0 mm | - | - | - |
| 1777902191 | 18.89° C | 70% | 1013 hPa | 0 mm | - | - | - |
| 1777902131 | 18.89° C | 70% | 1013 hPa | 0 mm | - | - | - |
| 1777900990 | 16.67° C | 82% | 1012 hPa | 0 mm | - | - | - |
| 1777900930 | 16.67° C | 82% | 1012 hPa | 0 mm | - | - | - |
| 1777899790 | 17.22° C | 82% | 1013 hPa | 0 mm | - | - | - |
| 1777899729 | 17.22° C | 82% | 1013 hPa | 0 mm | - | - | - |
| 1777898589 | 13.89° C | 82% | 1013 hPa | 0 mm | - | - | - |
| 1777898529 | 13.89° C | 82% | 1013 hPa | 0 mm | - | - | - |
* Rain latest hour (hover to see other rain measurements)
** Current wind speed in m/s (hover to see current wind gust speed)